Dewpoint
52 52 50 50 49 49 51 50 49 48 46 45 45 45 42 47 49 52 53 54 55 56 57 58 59 60 60 61 61 63 62 60 62 60 59 57 54 54 53 54 55 54
51 51 50 49 48 48 49 51 49 48 46 46 45 45 48 49 50 50 51 53 53 54 55 57 57 58 59 59 60 61 62 62 61 60 59 59 57 53 53 54 54 54
49 49 48 48 46 47 48 47 47 46 44 43 46 49 49 49 51 49 51 52 51 52 53 55 55 57 58 58 58 59 60 60 59 60 60 59 59 54 59 56 55 53
49 48 47 47 47 46 46 45 43 43 45 44 47 49 48 49 52 51 50 51 50 50 52 53 55 57 58 58 59 58 59 60 60 60 60 61 60 57 51 52 54 54
50 49 48 47 47 47 47 43 41 43 44 47 50 50 49 51 52 51 50 50 50 50 51 52 54 57 59 59 59 58 58 59 60 59 59 59 59 57 56 54 52 52
44 41 41 41 44 45 44 41 41 42 45 49 50 49 49 51 50 50 49 49 48 49 50 51 54 56 57 58 58 58 58 58 60 59 58 58 58 59 54 53 51 51
42 42 43 41 45 44 44 44 45 46 48 50 49 49 49 50 49 51 49 48 46 48 46 51 55 56 56 55 55 56 57 57 57 58 57 58 59 57 57 54 49 50
42 43 43 45 48 47 46 45 46 48 49 49 50 50 49 49 49 52 50 48 46 44 45 49 52 52 53 55 55 55 56 57 57 57 56 56 57 55 56 54 51 50
43 44 45 47 47 46 46 46 47 48 46 48 47 49 48 48 50 49 47 45 47 50 46 54 49 52 55 55 56 54 55 56 56 56 56 56 56 55 55 52 51 50
45 45 46 47 47 46 46 47 46 46 46 46 46 48 47 50 48 45 46 46 48 49 51 49 53 53 53 54 55 55 54 55 55 56 55 55 56 56 55 53 51 50
46 45 46 46 47 46 47 46 45 45 45 43 45 46 46 48 47 46 47 46 47 47 49 51 53 50 51 51 52 54 55 55 55 55 55 55 56 55 54 53 52 52
45 46 46 46 46 46 46 44 44 44 44 44 44 44 45 45 46 47 47 46 45 46 48 51 51 48 49 49 49 51 53 55 55 55 55 54 55 55 54 52 51 51
45 46 46 46 45 45 45 43 43 43 42 42 44 44 44 44 45 45 47 46 46 48 48 50 50 48 47 47 48 50 52 53 55 53 54 54 55 54 54 53 52 51
43 44 45 43 43 43 43 44 43 42 42 43 43 43 43 42 44 45 46 45 47 48 48 52 49 47 47 46 46 49 52 52 54 54 54 53 53 54 55 52 51 50
42 43 43 42 41 41 42 42 42 42 42 41 41 42 44 43 44 45 44 44 44 47 49 52 50 48 47 45 45 46 49 54 53 53 53 52 54 54 54 51 49 48
40 41 40 41 41 40 41 41 41 42 42 41 41 42 43 44 44 44 45 45 45 45 48 50 50 47 46 44 44 44 48 52 52 52 52 52 53 53 54 50 49 49
39 39 39 39 40 41 41 41 40 42 41 41 42 43 45 44 44 43 45 47 46 45 47 49 50 46 43 41 41 42 46 50 53 51 50 53 53 53 53 49 49 48
39 38 38 39 40 39 40 40 41 41 41 42 43 44 45 45 44 45 46 46 48 46 47 48 50 45 41 41 41 41 43 47 53 51 51 52 52 54 53 49 49 50
38 38 38 39 39 40 41 41 41 41 42 43 43 45 45 44 44 45 46 47 47 45 47 48 50 43 41 41 40 40 40 45 50 51 51 52 52 53 52 49 49 50
39 39 39 40 40 40 41 40 41 41 43 43 43 44 44 44 45 46 46 45 45 45 46 47 49 44 41 40 40 40 39 42 52 51 51 50 51 51 51 50 49 49
39 39 39 39 39 39 40 40 40 41 40 41 41 42 42 42 42 45 44 44 44 45 47 48 49 42 40 40 40 39 39 44 51 51 52 52 51 51 52 51 49 49
39 38 39 38 38 39 39 39 39 39 40 40 41 40 41 41 41 41 41 41 43 45 46 46 47 41 40 40 39 39 40 47 48 50 52 52 52 51 52 51 49 49
38 38 38 38 38 38 37 38 39 40 40 40 40 40 40 40 42 41 42 43 45 45 45 45 46 43 40 40 39 39 41 45 47 47 51 53 53 51 52 51 50 48
38 37 37 38 37 37 38 39 39 40 40 40 39 39 38 39 40 40 42 43 44 44 45 45 45 44 40 39 39 39 41 43 46 47 49 50 51 52 53 52 51 51
38 39 38 37 37 37 39 39 39 39 39 39 39 38 39 38 39 39 40 41 42 43 45 44 43 43 40 39 39 39 40 42 44 45 47 48 49 52 52 52 50 50
39 38 38 37 36 37 39 39 39 39 39 39 38 37 38 38 38 39 39 40 42 43 43 43 43 43 42 39 39 38 39 42 44 45 45 46 48 49 51 50 51 50